Lid_Strength_Index
-0 -0 0 0 -0 -1 -1 -0 0 0 -0 -0 1 0 0 0 0 3 7 4 3 -1 2 7 7 8 8 9 9 11 13 15 14 14 13 12 11 12 10 10 9 8 8 6 3
-1 -0 0 0 -0 -1 -1 -1 0 -0 -0 -0 0 1 -0 0 5 6 1 -2 -2 -1 7 8 9 8 9 10 10 11 13 13 12 13 12 11 11 10 10 10 9 8 6 4 4
-1 -1 -0 -0 -0 -1 -1 -1 0 -0 -0 -0 0 0 0 1 6 8 -1 -2 -1 1 6 7 8 8 11 11 11 12 12 12 12 12 11 10 12 11 11 11 10 9 8 5 5
-0 -1 -1 -0 -0 -1 -1 -1 0 0 -0 -0 -0 -0 -0 4 14 5 -1 -1 -0 5 6 8 9 11 12 12 11 13 12 11 11 11 11 11 11 12 11 10 10 9 7 5 5
0 0 -0 -0 -1 -1 -1 -1 -0 0 -0 -0 -0 -1 3 10 9 4 -1 1 5 6 7 8 10 11 12 11 12 13 13 12 11 12 12 11 12 12 11 10 11 10 5 5 5
1 1 0 0 -1 -1 -1 -1 -0 0 0 -0 -1 -1 7 12 5 3 4 5 6 7 8 8 9 9 11 12 12 11 12 12 12 12 12 13 14 13 12 12 11 10 8 5 5
1 1 1 1 -0 -1 -1 -1 -1 -0 0 -0 -1 2 8 10 5 4 5 6 5 6 8 7 8 10 10 11 10 11 13 13 13 12 13 12 13 12 13 12 12 11 11 7 6
1 1 1 1 0 -0 -0 -0 -1 -0 0 -0 -1 5 10 5 5 6 6 7 6 6 6 7 7 8 10 10 11 13 14 16 14 12 12 13 16 13 13 13 12 12 13 11 9
1 1 1 1 1 0 -0 -0 -0 -0 -0 -1 5 9 11 3 6 5 7 7 6 7 7 6 8 10 11 13 15 15 18 17 14 12 13 14 15 13 12 12 12 12 12 12 12
0 1 0 0 1 1 1 1 -0 0 0 1 3 10 9 9 6 5 7 6 7 7 8 9 11 13 14 15 18 17 17 16 17 14 13 14 14 12 12 13 12 12 12 12 12
-0 0 0 0 0 1 2 6 9 10 7 10 9 11 9 6 5 7 7 7 9 11 13 11 13 15 14 13 15 14 16 17 16 14 14 14 14 13 12 13 12 12 11 11 11
-0 -0 -1 0 0 1 5 10 10 9 10 6 7 7 6 5 8 7 6 9 10 13 13 13 15 13 12 13 14 15 16 17 15 14 14 15 14 13 13 12 11 11 12 12 12
0 -0 -0 -0 0 3 5 6 4 5 12 10 7 8 7 6 9 8 7 9 12 13 13 14 14 12 12 14 14 16 16 17 16 16 15 16 17 16 14 14 13 12 11 11 12
1 0 0 0 3 3 5 3 3 5 14 13 10 9 6 6 10 7 7 9 12 13 13 14 13 13 14 15 14 17 14 14 15 16 18 17 21 18 16 14 14 12 13 13 13
3 1 -0 1 4 6 4 3 4 8 21 12 10 7 7 9 9 9 8 9 12 13 12 14 13 14 15 14 13 15 13 14 16 17 18 19 19 18 17 15 13 14 13 12 11
3 3 0 2 2 3 3 3 5 14 22 14 11 11 10 10 10 9 9 9 10 12 13 14 12 12 13 13 13 12 14 15 16 17 20 18 18 19 17 15 15 14 13 12 12
4 3 3 3 4 2 3 6 15 18 14 15 13 12 12 12 11 11 11 12 14 16 16 14 14 12 12 13 13 15 15 19 20 21 20 19 19 18 15 15 15 14 13 13 13
4 4 4 3 2 2 4 11 18 15 15 12 12 12 14 12 11 11 12 13 12 15 16 17 18 13 12 13 14 15 15 18 23 22 20 18 19 17 15 14 13 12 12 12 12
4 7 6 4 2 2 8 15 16 15 12 12 12 14 15 13 13 13 13 12 11 13 15 17 17 13 13 12 11 14 16 15 18 26 22 19 18 14 14 12 12 12 12 12 13
7 9 8 3 2 4 10 14 13 11 10 10 14 13 15 14 14 14 14 12 13 11 13 13 16 14 13 12 12 13 12 16 18 24 24 20 20 18 15 13 13 13 13 12 12
9 12 8 1 2 9 14 13 11 9 8 11 12 13 14 14 13 13 14 13 11 12 11 13 14 15 13 14 14 15 15 15 15 17 21 23 20 16 14 12 13 13 12 13 12
10 15 5 2 9 12 13 11 8 9 8 9 10 11 12 12 13 13 14 13 12 11 12 12 14 17 15 13 13 14 14 14 16 19 19 18 18 13 12 12 12 12 11 12 12
13 13 5 3 12 11 10 11 9 10 9 10 11 10 10 12 14 12 13 11 11 11 12 12 15 21 17 14 14 15 15 14 15 16 18 20 18 13 12 12 12 12 12 12 12
12 15 11 6 7 9 11 11 11 8 9 8 9 9 11 12 11 13 13 10 9 11 8 9 14 14 17 17 15 15 15 14 13 17 16 17 16 14 13 12 12 13 13 13 13
12 13 13 13 10 9 9 10 12 12 9 8 10 10 11 14 12 13 11 11 9 8 9 11 16 15 15 15 15 15 15 14 14 14 16 15 15 12 12 12 12 13 13 12 12
12 12 10 13 12 11 9 11 11 10 10 12 11 10 10 13 12 13 12 11 12 10 11 11 18 16 17 14 14 16 15 14 13 13 13 16 16 14 13 13 14 13 13 13 13
10 7 8 11 13 13 12 11 11 9 9 9 11 12 13 11 10 9 8 9 10 11 12 12 14 16 17 15 14 16 15 14 14 13 13 16 13 13 14 13 14 14 13 13 13